KC5KKT Weather Reports


time (UTC)temp
F
wind
direction
speed
knots
gust
knots
rain 1hr
in
rain 24hr
in
rain mn
in
humidity
%
barometer
mb
20260906220046 100 44 5.2 11.3 0.00 0.00 0.00 42 1011.0
20260906214553 101 104 3.5 8.7 0.00 0.00 0.00 42 1011.1
20260906213054 100 216 2.6 12.2 0.00 0.00 0.00 42 1011.3
20260906211545 99 134 3.5 11.3 0.00 0.00 0.00 44 1011.6
20260906210048 99 120 2.6 6.1 0.00 0.00 0.00 43 1011.9
20260906204559 100 146 4.3 11.3 0.00 0.00 0.00 44 1012.1
20260906203059 99 0 3.5 8.7 0.00 0.00 0.00 44 1012.5
20260906201545 99 143 3.5 10.4 0.00 0.00 0.00 45 1012.5
20260906200044 98 120 3.5 7.8 0.00 0.00 0.00 45 1012.6
20260906194551 98 92 3.5 9.6 0.00 0.00 0.00 46 1012.8
20260906193056 97 0 4.3 14.8 0.00 0.00 0.00 46 1013.0
20260906191545 99 108 7.0 13.0 0.00 0.00 0.00 45 1013.2
20260906190046 98 193 7.0 12.2 0.00 0.00 0.00 45 1013.3
20260906184551 98 264 3.5 9.6 0.00 0.00 0.00 45 1013.4
20260906183046 99 126 4.3 10.4 0.00 0.00 0.00 46 1013.7
20260906181550 95 85 3.5 13.0 0.00 0.00 0.00 50 1013.8
20260906174544 98 142 2.6 9.6 0.00 0.00 0.00 48 1014.4
20260906173049 97 156 0.9 9.6 0.00 0.00 0.00 48 1014.6
20260906171556 95 90 3.5 11.3 0.00 0.00 0.00 51 1014.7
20260906170048 95 105 3.5 8.7 0.00 0.00 0.00 50 1015.0
20260906164544 95 84 3.5 10.4 0.00 0.00 0.00 50 1014.9
20260906163056 95 149 2.6 7.0 0.00 0.00 0.00 50 1014.9
20260906161546 94 141 2.6 6.1 0.00 0.00 0.00 53 1015.0
20260906160052 93 126 0.9 7.8 0.00 0.00 0.00 55 1014.8
20260906154552 92 84 1.7 6.1 0.00 0.00 0.00 56 1014.9
20260906153045 91 99 0.9 7.0 0.00 0.00 0.00 59 1015.0
20260906151546 90 0 0.0 3.5 0.00 0.00 0.00 62 1014.7
20260906150109 89 0 0.0 1.7 0.00 0.00 0.00 66 1014.9
20260906144549 88 0 0.0 1.7 0.00 0.00 0.00 68 1015.0
20260906143051 87 0 0.0 2.6 0.00 0.00 0.00 71 1014.9
20260906141548 86 154 0.9 3.5 0.00 0.00 0.00 73 1014.9
20260906140054 85 0 0.0 0.9 0.00 0.00 0.00 75 1014.9
20260906134546 85 0 0.0 0.9 0.00 0.00 0.00 77 1014.7
20260906133110 83 0 0.0 1.7 0.00 0.00 0.00 80 1014.6
20260906131545 82 104 0.0 1.7 0.00 0.00 0.00 81 1014.6
20260906130106 80 0 0.0 0.9 0.00 0.00 0.00 83 1014.5
20260906124550 79 0 0.0 0.9 0.00 0.00 0.00 85 1014.4
20260906123046 77 0 0.0 0.9 0.00 0.00 0.00 87 1014.4
20260906121544 77 0 0.0 0.0 0.00 0.00 0.00 87 1014.2
20260906120044 77 0 0.0 0.0 0.00 0.00 0.00 87 1014.1
20260906114552 77 0 0.0 0.0 0.00 0.00 0.00 86 1014.1
20260906113046 77 0 0.0 0.0 0.00 0.00 0.00 85 1014.0
20260906111601 77 0 0.0 1.7 0.00 0.00 0.00 83 1013.7
20260906110056 77 0 0.0 0.0 0.00 0.00 0.00 82 1013.5
20260906104549 77 0 0.0 0.0 0.00 0.00 0.00 82 1013.4
20260906103045 77 0 0.0 0.0 0.00 0.00 0.00 82 1013.4
20260906101546 78 0 0.0 0.0 0.00 0.00 0.00 80 1013.1
20260906100054 79 0 0.0 0.9 0.00 0.00 0.00 79 1013.1
20260906094547 79 180 0.0 2.6 0.00 0.00 0.00 79 1013.1
20260906093045 79 0 0.0 0.9 0.00 0.00 0.00 78 1013.0
20260906091546 79 220 0.9 1.7 0.00 0.00 0.00 79 1012.9
20260906090056 79 0 0.0 0.0 0.00 0.00 0.00 79 1013.0
20260906084545 79 0 0.0 1.7 0.00 0.00 0.00 79 1013.0
20260906083050 80 0 0.9 2.6 0.00 0.00 0.00 78 1012.8
20260906081546 80 195 2.6 4.3 0.00 0.00 0.00 78 1012.8
20260906080047 80 162 1.7 2.6 0.00 0.00 0.00 76 1012.8
20260906074546 80 163 0.9 2.6 0.00 0.00 0.00 76 1012.6
20260906073048 80 168 1.7 3.5 0.00 0.00 0.00 76 1012.7
20260906071545 81 167 2.6 3.5 0.00 0.00 0.00 76 1012.8
20260906070058 81 179 0.0 2.6 0.00 0.00 0.00 74 1012.8
20260906064552 82 0 0.0 1.7 0.00 0.00 0.00 74 1013.1
20260906063046 82 216 1.7 2.6 0.00 0.00 0.00 75 1012.9
20260906061546 82 207 0.0 1.7 0.00 0.00 0.00 74 1013.1
20260906060045 83 0 0.0 2.6 0.00 0.00 0.00 73 1013.0
20260906054600 83 167 2.6 3.5 0.00 0.00 0.00 71 1013.0
20260906053044 84 0 1.7 3.5 0.00 0.00 0.00 70 1013.1
20260906051604 84 151 1.7 4.3 0.00 0.00 0.00 69 1013.1
20260906050046 85 203 2.6 3.5 0.00 0.00 0.00 69 1012.9
20260906044553 85 169 2.6 5.2 0.00 0.00 0.00 67 1012.9
20260906043047 86 143 3.5 6.1 0.00 0.00 0.00 67 1013.0
20260906041546 86 174 1.7 4.3 0.00 0.00 0.00 66 1013.2
20260906040130 87 163 3.5 6.1 0.00 0.00 0.00 63 1013.2
20260906034558 87 151 3.5 7.0 0.00 0.00 0.00 62 1013.1
20260906033101 87 0 1.7 4.3 0.00 0.00 0.00 60 1012.9
20260906031544 88 143 0.0 2.6 0.00 0.00 0.00 58 1012.8
20260906030048 88 0 0.0 0.9 0.00 0.00 0.00 57 1012.8
20260906024554 89 0 0.0 1.7 0.00 0.00 0.00 56 1012.5
20260906023044 89 0 0.0 0.9 0.00 0.00 0.00 55 1012.4
20260906021546 89 0 0.0 0.9 0.00 0.00 0.00 55 1012.1
20260906020046 90 0 0.0 0.0 0.00 0.00 0.00 53 1012.0
20260906014551 91 0 0.0 0.0 0.00 0.00 0.00 52 1011.7
20260906013049 92 0 0.0 1.7 0.00 0.00 0.00 51 1011.6
20260906011547 92 166 0.0 1.7 0.00 0.00 0.00 50 1011.5
20260906010047 93 173 0.9 1.7 0.00 0.00 0.00 49 1011.5
20260906004554 95 129 0.9 3.5 0.00 0.00 0.00 47 1011.4
20260906003050 96 169 2.6 5.2 0.00 0.00 0.00 45 1011.3
20260906001547 97 139 2.6 6.1 0.00 0.00 0.00 44 1011.4
20260906000045 98 0 2.6 7.8 0.00 0.00 0.00 43 1011.2
20260905234544 98 163 0.9 4.3 0.00 0.00 0.00 43 1011.1
20260905233057 98 116 2.6 7.0 0.00 0.00 0.00 43 1011.0
20260905231545 99 135 0.0 5.2 0.00 0.00 0.00 42 1011.1
20260905230105 99 133 0.9 7.8 0.00 0.00 0.00 43 1011.1
20260905224611 98 0 1.7 6.1 0.00 0.00 0.00 43 1011.2
20260905223047 99 164 1.7 7.0 0.00 0.00 0.00 42 1011.2
20260905221553 100 141 3.5 7.8 0.00 0.00 0.00 41 1011.2